Location: Diati
(11.8376°N, 2.5966°E)
Time: 18:12:38
(UTC+00:00)

GPS 2-04 Rocket1 - Pass Details

Date: 21 September 2020
Orbit: 418 x 547 km, 35.6° (Epoch: 19 October)

Event Time Altitude Azimuth Distance (km) Brightness Sun altitude
Rises 18:20:31 0° 314° (NW) 2,695 7.2 -9.3°
Reaches altitude 10° 18:22:52 10° 320° (NW) 1,803 6.1 -9.8°
Maximum altitude 18:26:52 46° 34° (NE) 732 3.2 -10.8°
Enters shadow 18:29:51 16° 103° (ESE) 1,420 4.3 -11.5°
